When you browse on this site, cookies collect data to enhance your experience and personalize the content and advertising you see.
Visit our Privacy Policy to learn more. By continuing to use the site, you agree to this use of cookies and data.
  • In Hungary
  • List of Countries
  • For 7 days
  • Water Temperature
  • Satellite Maps
  • Weather Map
  • News
  • Weather Widgets
  • user-avatar
    Login

    Hourly Weather Ripollet

    Today, 21 November, Wednesday

    Time Temperature Precipitation Wind Pressure Humidity
    00:00 +8°C° 0 mm 4 mps 744 mmHg 88%
    01:00 +9°C° 0 mm 3 mps 744 mmHg 87%
    02:00 +9°C° 0 mm 3 mps 744 mmHg 86%
    03:00 +9°C° 0 mm 3 mps 745 mmHg 86%
    04:00 +9°C° 0 mm 3 mps 745 mmHg 85%
    05:00 +8°C° 0 mm 3 mps 746 mmHg 85%
    06:00 +8°C° 0 mm 3 mps 747 mmHg 85%
    07:00 +9°C° 0 mm 3 mps 747 mmHg 81%
    08:00 +10°C° 0 mm 3 mps 748 mmHg 78%
    09:00 +11°C° 0 mm 3 mps 748 mmHg 75%
    10:00 +13°C° 0 mm 3 mps 748 mmHg 70%
    11:00 +14°C° 0 mm 3 mps 748 mmHg 65%
    12:00 +15°C° 0 mm 4 mps 749 mmHg 60%
    13:00 +15°C° 0 mm 4 mps 749 mmHg 59%
    14:00 +17°C° 0 mm 4 mps 749 mmHg 58%
    15:00 +17°C° 0 mm 4 mps 749 mmHg 58%
    16:00 +14°C° 0 mm 4 mps 749 mmHg 64%
    17:00 +13°C° 0 mm 3 mps 750 mmHg 70%
    18:00 +11°C° 0 mm 3 mps 750 mmHg 76%
    19:00 +11°C° 0 mm 3 mps 751 mmHg 76%
    20:00 +12°C° 0 mm 2 mps 751 mmHg 76%
    21:00 +10°C° 0 mm 2 mps 752 mmHg 77%
    22:00 +10°C° 0 mm 2 mps 752 mmHg 76%
    23:00 +10°C° 0 mm 2 mps 752 mmHg 76%

    Tomorrow, 22 November, Thursday

    Time Temperature Precipitation Wind Pressure Humidity
    00:00 +10°C° 0 mm 2 mps 752 mmHg 76%
    01:00 +9°C° 0 mm 2 mps 752 mmHg 75%
    02:00 +9°C° 0 mm 2 mps 752 mmHg 74%
    03:00 +9°C° 0 mm 2 mps 752 mmHg 73%
    04:00 +9°C° 0 mm 2 mps 752 mmHg 73%
    05:00 +9°C° 0 mm 2 mps 752 mmHg 72%
    06:00 +9°C° 0 mm 2 mps 753 mmHg 71%
    07:00 +10°C° 0 mm 2 mps 753 mmHg 68%
    08:00 +12°C° 0 mm 2 mps 753 mmHg 65%
    09:00 +13°C° 0 mm 2 mps 753 mmHg 61%
    10:00 +14°C° 0 mm 2 mps 753 mmHg 56%
    11:00 +16°C° 0 mm 2 mps 753 mmHg 51%
    12:00 +17°C° 0 mm 3 mps 753 mmHg 46%
    13:00 +17°C° 0 mm 2 mps 753 mmHg 47%
    14:00 +17°C° 0 mm 2 mps 753 mmHg 47%
    15:00 +17°C° 0 mm 2 mps 753 mmHg 48%
    16:00 +16°C° 0 mm 2 mps 753 mmHg 52%
    17:00 +14°C° 0 mm 1 mps 753 mmHg 56%
    18:00 +13°C° 0 mm 1 mps 753 mmHg 60%
    19:00 +13°C° 0 mm 1 mps 753 mmHg 60%
    20:00 +13°C° 0 mm 1 mps 754 mmHg 60%
    21:00 +13°C° 0 mm 1 mps 754 mmHg 60%
    22:00 +13°C° 0 mm 1 mps 753 mmHg 60%
    23:00 +13°C° 0 mm 1 mps 753 mmHg 60%

    Day after tomorrow, 23 November, Friday

    Time Temperature Precipitation Wind Pressure Humidity
    00:00 +12°C° 0 mm 2 mps 753 mmHg 61%
    01:00 +12°C° 0.1 mm 2 mps 753 mmHg 62%
    02:00 +12°C° 0.1 mm 2 mps 752 mmHg 63%
    03:00 +12°C° 0.1 mm 2 mps 752 mmHg 64%
    04:00 +11°C° 0.4 mm 3 mps 752 mmHg 69%
    05:00 +11°C° 0.4 mm 3 mps 751 mmHg 73%
    06:00 +11°C° 0.4 mm 3 mps 751 mmHg 78%
    07:00 +11°C° 0.7 mm 3 mps 751 mmHg 80%
    08:00 +11°C° 0.7 mm 3 mps 751 mmHg 82%
    09:00 +11°C° 0.7 mm 3 mps 751 mmHg 84%
    10:00 +12°C° 0 mm 3 mps 751 mmHg 79%
    11:00 +14°C° 0 mm 3 mps 751 mmHg 74%
    12:00 +16°C° 0 mm 2 mps 751 mmHg 68%
    13:00 +16°C° 0 mm 3 mps 750 mmHg 67%
    14:00 +15°C° 0 mm 4 mps 750 mmHg 66%
    15:00 +15°C° 0 mm 4 mps 750 mmHg 65%
    16:00 +14°C° 0 mm 4 mps 751 mmHg 70%
    17:00 +12°C° 0 mm 4 mps 751 mmHg 76%
    18:00 +11°C° 0 mm 4 mps 752 mmHg 81%
    19:00 +11°C° 0 mm 4 mps 752 mmHg 81%
    20:00 +10°C° 0 mm 4 mps 753 mmHg 82%
    21:00 +10°C° 0 mm 4 mps 753 mmHg 82%
    22:00 +10°C° 0 mm 3 mps 753 mmHg 81%
    23:00 +9°C° 0 mm 3 mps 753 mmHg 81%

    24 November, Saturday

    Time Temperature Precipitation Wind Pressure Humidity
    00:00 +9°C° 0 mm 3 mps 754 mmHg 80%
    01:00 +9°C° 0 mm 3 mps 753 mmHg 79%
    02:00 +9°C° 0 mm 2 mps 753 mmHg 78%
    03:00 +8°C° 0 mm 2 mps 753 mmHg 78%
    04:00 +8°C° 0 mm 2 mps 753 mmHg 76%
    05:00 +8°C° 0 mm 2 mps 753 mmHg 75%
    06:00 +8°C° 0 mm 2 mps 753 mmHg 73%
    07:00 +10°C° 0 mm 1 mps 754 mmHg 68%
    08:00 +11°C° 0 mm 1 mps 754 mmHg 63%
    09:00 +12°C° 0 mm 1 mps 754 mmHg 58%
    10:00 +13°C° 0 mm 1 mps 754 mmHg 54%
    11:00 +14°C° 0 mm 2 mps 753 mmHg 49%
    12:00 +15°C° 0 mm 2 mps 753 mmHg 45%
    13:00 +15°C° 0 mm 2 mps 752 mmHg 46%
    14:00 +14°C° 0 mm 3 mps 752 mmHg 48%
    15:00 +14°C° 0 mm 3 mps 752 mmHg 49%
    16:00 +13°C° 0 mm 3 mps 752 mmHg 53%
    17:00 +12°C° 0 mm 3 mps 752 mmHg 58%
    18:00 +11°C° 0 mm 3 mps 752 mmHg 62%
    19:00 +10°C° 0 mm 3 mps 752 mmHg 63%
    20:00 +10°C° 0 mm 3 mps 752 mmHg 63%
    21:00 +10°C° 0 mm 3 mps 752 mmHg 63%
    22:00 +10°C° 0 mm 3 mps 751 mmHg 64%
    23:00 +10°C° 0 mm 4 mps 751 mmHg 65%

    25 November, Sunday

    Time Temperature Precipitation Wind Pressure Humidity
    00:00 +8°C° 0 mm 4 mps 751 mmHg 67%
    01:00 +8°C° 0 mm 4 mps 750 mmHg 68%
    02:00 +8°C° 0 mm 4 mps 750 mmHg 69%
    03:00 +8°C° 0 mm 4 mps 749 mmHg 70%
    04:00 +7°C° 0 mm 4 mps 749 mmHg 70%
    05:00 +7°C° 0 mm 4 mps 749 mmHg 69%
    06:00 +8°C° 0 mm 3 mps 749 mmHg 69%
    07:00 +8°C° 0 mm 4 mps 749 mmHg 67%
    08:00 +10°C° 0 mm 4 mps 749 mmHg 64%
    09:00 +11°C° 0 mm 4 mps 749 mmHg 62%
    10:00 +13°C° 0 mm 5 mps 748 mmHg 61%
    11:00 +14°C° 0 mm 6 mps 748 mmHg 59%
    12:00 +15°C° 0 mm 6 mps 748 mmHg 58%
    13:00 +15°C° 0 mm 6 mps 748 mmHg 59%
    14:00 +15°C° 0 mm 5 mps 747 mmHg 60%
    15:00 +15°C° 0 mm 5 mps 747 mmHg 61%
    16:00 +14°C° 0 mm 4 mps 747 mmHg 67%
    17:00 +13°C° 0 mm 3 mps 748 mmHg 73%
    18:00 +11°C° 0 mm 3 mps 748 mmHg 78%
    19:00 +12°C° 0 mm 2 mps 748 mmHg 79%
    20:00 +12°C° 0 mm 2 mps 748 mmHg 80%
    21:00 +12°C° 0 mm 2 mps 748 mmHg 80%
    22:00 +12°C° 0 mm 2 mps 748 mmHg 80%
    23:00 +11°C° 0 mm 3 mps 748 mmHg 79%

    26 November, Monday

    Time Temperature Precipitation Wind Pressure Humidity
    00:00 +11°C° 0 mm 3 mps 748 mmHg 79%
    01:00 +10°C° 0 mm 3 mps 748 mmHg 79%
    02:00 +10°C° 0 mm 4 mps 747 mmHg 80%
    03:00 +9°C° 0 mm 5 mps 747 mmHg 81%
    04:00 +10°C° 0 mm 4 mps 748 mmHg 80%
    05:00 +8°C° 0 mm 4 mps 748 mmHg 79%
    06:00 +8°C° 0 mm 4 mps 749 mmHg 78%
    07:00 +10°C° 0 mm 4 mps 750 mmHg 74%
    08:00 +11°C° 0 mm 3 mps 750 mmHg 71%
    09:00 +13°C° 0 mm 2 mps 751 mmHg 68%
    10:00 +13°C° 0 mm 3 mps 751 mmHg 65%
    11:00 +14°C° 0 mm 4 mps 752 mmHg 62%
    12:00 +15°C° 0 mm 4 mps 752 mmHg 59%
    13:00 +15°C° 0 mm 4 mps 752 mmHg 57%
    14:00 +15°C° 0 mm 4 mps 752 mmHg 55%
    15:00 +15°C° 0 mm 5 mps 752 mmHg 53%
    16:00 +13°C° 0 mm 4 mps 752 mmHg 57%
    17:00 +12°C° 0 mm 4 mps 753 mmHg 60%
    18:00 +11°C° 0 mm 4 mps 753 mmHg 64%
    19:00 +11°C° 0 mm 4 mps 753 mmHg 64%
    20:00 +10°C° 0 mm 4 mps 754 mmHg 64%
    21:00 +10°C° 0 mm 4 mps 754 mmHg 65%
    22:00 +8°C° 0 mm 4 mps 754 mmHg 66%
    23:00 +8°C° 0 mm 4 mps 754 mmHg 67%
    Show more